WA2GUG Weather Reports


Display with metric or nautical units.
time (UTC)temp
F
wind
direction
speed
MPH
gust
MPH
rain 1hr
in
rain 24hr
in
rain mn
in
humidity
%
barometer
mb
20190123051201 11 30 0.0 99.0 0.00 0.00 0.00 92 1022.0
20190123045201 11 45 0.0 2.0 0.00 0.00 0.00 88 1023.0
20190123044201 11 352 1.0 2.0 0.00 0.00 0.00 90 1023.1
20190123043201 11 337 0.0 1.0 0.00 0.00 0.00 92 1024.0
20190123042201 11 328 0.0 2.0 0.00 0.00 0.00 89 1024.0
20190123041201 12 58 0.0 2.0 0.00 0.00 0.00 90 1023.1
20190123035201 12 337 0.0 1.0 0.00 0.00 0.00 91 1024.0
20190123034201 13 15 0.0 2.0 0.00 0.00 0.00 86 1024.0
20190123031701 13 337 1.0 2.0 0.00 0.00 0.00 88 1024.0
20190123031201 13 0 0.0 1.0 0.00 0.00 0.00 92 1024.0
20190123024200 12 135 0.0 2.0 0.00 0.00 0.00 94 1025.0
20190123023201 12 337 1.0 2.0 0.00 0.00 0.00 89 1025.0
20190123021201 12 0.0 1.0 0.00 0.00 0.00 87 1024.0
20190123014201 12 0 0.0 0.0 0.00 0.00 0.00 86 1024.1
20190123012201 12 48 0.0 0.0 0.00 0.00 0.00 86 1025.0
20190123011200 13 67 0.0 0.0 0.00 0.00 0.00 90 1026.0
20190123010200 13 61 0.0 99.0 0.00 0.00 0.00 86 1026.0
20190123004201 14 67 0.0 0.0 0.00 0.00 0.00 89 1026.0
20190122234201 16 135 0.0 1.0 0.00 0.00 0.00 81 1026.0
20190122233201 16 157 0.0 1.0 0.00 0.00 0.00 82 1026.0
20190122225201 15 157 0.0 1.0 0.00 0.00 0.00 83 1026.0
20190122224201 15 112 0.0 0.0 0.00 0.00 0.00 84 1026.1
20190122222201 15 112 0.0 1.0 0.00 0.00 0.00 81 1026.0
20190122221201 15 67 1.0 2.0 0.00 0.00 0.00 81 1025.1
20190122215201 18 67 0.0 1.0 0.00 0.00 0.00 78 1026.0
20190122214201 18 180 0.0 1.0 0.00 0.00 0.00 77 1025.0
20190122213201 20 157 0.0 1.0 0.00 0.00 0.00 68 1026.0
20190122212201 20 112 0.0 2.0 0.00 0.00 0.00 71 1026.0
20190122205201 23 146 1.0 3.0 0.00 0.00 0.00 81 1026.0
20190122203201 26 172 1.0 3.0 0.00 0.00 0.00 64 1026.1
20190122200700 27 166 2.0 7.0 0.00 0.00 0.00 71 1188.0
20190122200200 27 135 3.0 99.0 0.00 0.00 0.00 67 1026.0
20190122195200 31 112 2.0 5.0 0.00 0.00 0.00 74 1027.0
20190122193201 33 180 3.0 7.0 0.00 0.00 0.00 64 1026.0
20190122185200 54 348 2.0 3.0 0.00 0.00 0.00 53 1026.0
20190122184700 57 22 2.0 4.0 0.00 0.00 0.00 63 1026.0
20190122184200 55 45 2.0 4.0 0.00 0.00 0.00 51 1026.0
20190122182200 53 288 3.0 5.0 0.00 0.00 0.00 48 1026.0
20190122181700 52 310 2.0 6.0 0.00 0.00 0.00 47 1026.0
20190122181200 50 326 3.0 6.0 0.00 0.00 0.00 62 1025.1
20190122180202 53 333 3.0 7.0 0.00 0.00 0.00 50 1026.0
20190122175700 52 306 2.0 5.0 0.00 0.00 0.00 50 1433.0
20190122175201 47 30 3.0 5.0 0.00 0.00 0.00 62 1026.0
20190122174200 46 298 2.0 7.0 0.00 0.00 0.00 59 1027.0
20190122173700 44 61 3.0 7.0 0.00 0.00 0.00 59 1027.0
20190122171700 47 307 3.0 6.0 0.00 0.00 0.00 58 1027.0
20190122165200 46 337 1.0 4.0 0.00 0.00 0.00 47 1026.1
20190122162700 44 180 2.0 6.0 0.00 0.00 0.00 52 1027.0
20190122160200 41 337 2.0 5.0 0.00 0.00 0.00 60 1027.0
20190122154701 39 346 3.0 7.0 0.00 0.00 0.00 56 1026.1
20190122153200 37 112 2.0 8.0 0.00 0.00 0.00 63 1027.0
20190122152200 34 22 2.0 5.0 0.00 0.00 0.00 83 1027.0
20190122143705 18 346 3.0 7.0 0.00 0.00 0.00 62 1027.0
20190122141700 20 0 3.0 11.0 0.00 0.00 0.00 72 1027.0
20190122140702 24 0 2.0 7.0 0.00 0.00 0.00 67 1027.0
20190122131701 15 315 3.0 8.0 0.00 0.00 0.00 67 1026.0
20190122130201 12 18 3.0 10.0 0.00 0.00 0.00 80 1026.0
20190122124200 8 3.0 8.0 0.00 0.00 0.00 88 1025.1
20190122123700 8 337 3.0 6.0 0.00 0.00 0.00 79 1025.0
20190122121700 8 315 3.0 7.0 0.00 0.00 0.00 79 1025.0
20190122120700 8 303 4.0 9.0 0.00 0.00 0.00 84 1025.0
20190122120201 8 0 4.0 9.0 0.00 0.00 0.00 83 1025.0
20190122115702 8 52 3.0 10.0 0.00 0.00 0.00 80 1023.0
20190122114200 9 331 3.0 11.0 0.00 0.00 0.00 79 1025.0
20190122112700 9 22 4.0 8.0 0.00 0.00 0.00 83 1025.0
20190122112200 9 352 3.0 8.0 0.00 0.00 0.00 75 1025.0
20190122111700 9 352 4.0 8.0 0.00 0.00 0.00 76 1025.0
20190122110702 9 354 3.0 6.0 0.00 0.00 0.00 81 1024.1
20190122105201 8 337 3.0 6.0 0.00 0.00 0.00 89 1023.0
20190122103700 9 337 3.0 7.0 0.00 0.00 0.00 83 1024.0
20190122101700 9 320 3.0 8.0 0.00 0.00 0.00 86 1024.0
20190122094700 8 4.0 9.0 0.00 0.00 0.00 89 1023.0
20190122092701 9 0 4.0 15.0 0.00 0.00 0.00 92 1023.0
20190122092200 9 157 4.0 15.0 0.00 0.00 0.00 87 1023.0
20190122091200 9 22 4.0 9.0 0.00 0.00 0.00 87 1023.0
20190122090701 9 337 4.0 8.0 0.00 0.00 0.00 80 1023.0
20190122084700 9 352 5.0 13.0 0.00 0.00 0.00 78 1023.0
20190122083659 8 315 4.0 9.0 0.00 0.00 0.00 93 1023.0
20190122082700 8 45 4.0 8.0 0.00 0.00 0.00 83 1023.0
20190122080700 8 0 4.0 10.0 0.00 0.00 0.00 81 1023.0
20190122075700 8 337 4.0 10.0 0.00 0.00 0.00 86 1022.0
20190122074200 9 22 6.0 13.0 0.00 0.00 0.00 80 1022.0
20190122073700 9 315 5.0 10.0 0.00 0.00 0.00 86 1022.0
20190122072659 9 337 4.0 9.0 0.00 0.00 0.00 87 1022.0
20190122072202 9 322 4.0 13.0 0.00 0.00 0.00 82 1022.0
20190122071700 9 348 4.0 13.0 0.00 0.00 0.00 87 1022.0
20190122070700 8 270 4.0 10.0 0.00 0.00 0.00 89 1022.0
20190122062700 9 330 5.0 99.0 0.00 0.00 0.00 87 1021.0
20190122060700 9 315 5.0 13.0 0.00 0.00 0.00 87 1021.0
20190122054159 8 322 5.0 13.0 0.00 0.00 0.00 90 1021.0
20190122053700 8 135 4.0 8.0 0.00 0.00 0.00 92 1021.0
20190122053200 8 337 5.0 11.0 0.00 0.00 0.00 83 1021.0